Stations météo

Publicité
Palma De Mallorca/Son San Ju, Espagne (8306): Température de l'air & dewpoint: 12.01.2018 14:00:00 - 18.01.2018 14:00:00 (CET)Palma De Mallorca/Son San Ju, Espagne (8306): Vitesse du vent: 12.01.2018 14:00:00 - 18.01.2018 14:00:00 (CET)Palma De Mallorca/Son San Ju, Espagne (8306): Direction du vent: 12.01.2018 14:00:00 - 18.01.2018 14:00:00 (CET)Palma De Mallorca/Son San Ju, Espagne (8306): reduced air pressure: 12.01.2018 14:00:00 - 18.01.2018 14:00:00 (CET)Palma De Mallorca/Son San Ju, Espagne (8306): visibility: 12.01.2018 14:00:00 - 18.01.2018 14:00:00 (CET)
Date & Time tt [°C] td [°C] ff [km/h] ff [knt] dd ppp [hPa] vv [km]
18.01.2018 14:00:00 16,1 9,5 15 8 SW 1023,8 10
18.01.2018 13:00:00 16,1 9,9 13 7 SW 1025,0 15
18.01.2018 12:00:00 16,1 9,5 4 2 - 1026,1 9
18.01.2018 11:00:00 15,2 9,4 0 0 N 1026,7 9
18.01.2018 10:00:00 10,6 8,4 0 0 N 1026,7 10
18.01.2018 09:00:00 7,4 6,5 0 0 N 1026,4 10
18.01.2018 08:00:00 7,3 6,6 0 0 N 1026,1 10
18.01.2018 07:00:00 8,3 7,2 0 0 N 1025,9 10
18.01.2018 06:00:00 9,2 7,8 0 0 N 1025,7 10
18.01.2018 05:00:00 9,4 7,8 0 0 N 1025,9 10
18.01.2018 04:00:00 9,8 8,2 0 0 N 1026,4 10
18.01.2018 03:00:00 9,1 7,9 4 2 - 1026,4 10
18.01.2018 02:00:00 9,5 8,1 4 2 ENE 1026,4 10
18.01.2018 01:00:00 9,3 7,8 4 2 ENE 1026,9 10
18.01.2018 00:00:00 9,7 8,0 2 1 - 1026,9 10
17.01.2018 23:00:00 10,9 8,5 4 2 NNE 1026,7 10
17.01.2018 22:00:00 11,0 8,6 8 4 NE 1026,1 10
17.01.2018 21:00:00 10,6 7,8 5 3 NE 1025,6 10
17.01.2018 20:00:00 10,5 6,3 8 4 SSE 1024,8 10
17.01.2018 19:00:00 11,3 5,9 4 2 E 1024,1 10
17.01.2018 18:00:00 13,9 5,5 8 4 N 1023,2 10
17.01.2018 17:00:00 16,1 5,4 18 10 N 1022,3 10
17.01.2018 16:00:00 16,6 4,0 31 17 NNW 1021,4 10
17.01.2018 15:00:00 17,2 4,2 37 20 NNW 1020,9 10
17.01.2018 14:00:00 17,3 4,0 50 27 NW 1020,1 10
17.01.2018 13:00:00 17,9 4,9 31 17 NNW 1021,5 10
17.01.2018 12:00:00 18,1 4,3 41 22 NW 1021,3 10
17.01.2018 11:00:00 18,3 6,3 21 11 NNW 1021,2 10
17.01.2018 10:00:00 17,8 8,2 28 15 WNW 1019,9 10
17.01.2018 09:00:00 17,4 6,4 16 9 W 1019,0 10
17.01.2018 08:00:00 16,9 6,4 24 13 WNW 1018,4 10
17.01.2018 07:00:00 15,0 8,7 13 7 W 1018,2 10
17.01.2018 06:00:00 14,0 9,8 9 5 WSW 1017,9 10
17.01.2018 05:00:00 13,4 10,2 16 9 SW 1017,8 10
17.01.2018 04:00:00 13,8 11,8 18 10 WSW 1018,1 10
17.01.2018 03:00:00 13,8 11,1 13 7 SW 1018,8 10
17.01.2018 02:00:00 14,2 11,2 28 15 WSW 1018,7 10
17.01.2018 01:00:00 14,0 11,2 28 15 WSW 1019,2 10
17.01.2018 00:00:00 14,4 11,0 28 15 WSW 1020,0 10
16.01.2018 23:00:00 15,6 8,8 18 10 SW 1020,2 10
16.01.2018 22:00:00 14,8 9,4 24 13 SW 1020,8 10
16.01.2018 21:00:00 14,3 9,5 21 11 SW 1020,6 10
16.01.2018 20:00:00 14,5 9,4 24 13 SW 1020,8 10
16.01.2018 19:00:00 14,0 10,2 16 9 SW 1021,1 10
16.01.2018 18:00:00 14,6 10,0 16 9 WSW 1021,2 10
16.01.2018 17:00:00 15,7 10,0 24 13 WSW 1021,3 10
16.01.2018 16:00:00 15,9 7,6 28 15 WSW 1021,5 10
16.01.2018 15:00:00 16,1 8,3 31 17 W 1022,0 10
16.01.2018 14:00:00 15,8 7,8 35 19 WSW 1022,8 10
16.01.2018 13:00:00 15,9 8,0 34 18 W 1023,7 10
16.01.2018 12:00:00 15,8 7,6 31 17 W 1024,4 10
16.01.2018 11:00:00 15,6 6,9 26 14 W 1024,8 10
16.01.2018 10:00:00 14,7 6,8 28 15 WSW 1024,2 10
16.01.2018 09:00:00 13,8 6,9 26 14 WSW 1023,8 10
16.01.2018 08:00:00 12,9 7,6 16 9 SW 1023,6 10
16.01.2018 07:00:00 12,9 7,3 18 10 WSW 1023,5 10
16.01.2018 06:00:00 12,7 8,0 24 13 WSW 1023,8 10
16.01.2018 05:00:00 12,7 8,2 26 14 WSW 1024,3 10
16.01.2018 04:00:00 12,4 7,9 22 12 W 1024,9 10
16.01.2018 03:00:00 11,7 8,4 24 13 W 1025,0 10
16.01.2018 02:00:00 4,0 3,3 0 0 N 1025,5 10
16.01.2018 01:00:00 3,5 2,5 0 0 N 1026,0 10
16.01.2018 00:00:00 4,0 3,0 4 2 NE 1026,9 10
15.01.2018 23:00:00 4,2 2,7 4 2 NE 1026,9 10
15.01.2018 22:00:00 7,9 6,4 0 0 N 1026,6 10
15.01.2018 21:00:00 5,1 3,1 0 0 N 1026,2 10
15.01.2018 20:00:00 7,5 4,4 2 1 SSE 1025,8 10
15.01.2018 19:00:00 9,8 5,0 0 0 N 1025,3 10
15.01.2018 18:00:00 10,9 4,6 8 4 NW 1025,1 10
15.01.2018 17:00:00 13,5 4,1 11 6 NNW 1024,6 10
15.01.2018 16:00:00 14,4 3,8 11 6 NW 1024,0 10
15.01.2018 15:00:00 14,6 5,1 15 8 NW 1023,7 10
15.01.2018 14:00:00 13,7 5,5 8 4 W 1024,2 10
15.01.2018 13:00:00 14,5 5,3 8 4 WSW 1024,8 10
15.01.2018 12:00:00 15,0 6,3 0 0 N 1025,2 10
15.01.2018 11:00:00 11,8 5,9 0 0 N 1025,3 10
15.01.2018 10:00:00 7,1 4,6 0 0 N 1024,7 10
15.01.2018 09:00:00 2,4 1,5 2 1 NE 1024,2 10
15.01.2018 08:00:00 1,4 0,7 2 1 E 1023,6 10
15.01.2018 07:00:00 1,6 0,9 2 1 - 1022,9 10
15.01.2018 06:00:00 1,5 0,8 4 2 - 1022,0 10
15.01.2018 05:00:00 2,4 1,8 0 0 N 1021,7 10
15.01.2018 04:00:00 1,9 1,0 4 2 NE 1021,5 10
15.01.2018 03:00:00 1,9 1,0 4 2 ENE 1021,6 10
15.01.2018 02:00:00 2,4 1,5 0 0 N 1021,3 10
15.01.2018 01:00:00 2,4 1,5 2 1 NNE 1021,4 10
15.01.2018 00:00:00 3,3 2,1 0 0 N 1021,4 10
14.01.2018 23:00:00 4,2 2,7 4 2 - 1020,9 10
14.01.2018 22:00:00 5,7 3,4 0 0 N 1020,4 10
14.01.2018 21:00:00 5,8 3,6 4 2 ENE 1020,1 10
14.01.2018 20:00:00 6,4 3,9 5 3 NE 1019,5 10
14.01.2018 19:00:00 8,8 4,0 0 0 N 1018,8 10
14.01.2018 18:00:00 11,2 3,9 4 2 - 1018,0 10
14.01.2018 17:00:00 12,9 4,6 9 5 NNW 1017,4 10
14.01.2018 16:00:00 13,2 4,9 16 9 NNW 1017,0 10
14.01.2018 15:00:00 14,3 5,8 15 8 N 1016,6 10
14.01.2018 14:00:00 14,9 4,6 11 6 NW 1016,5 10
14.01.2018 13:00:00 13,6 6,5 16 9 NW 1016,8 10
14.01.2018 12:00:00 13,2 6,3 13 7 NNW 1017,6 10
14.01.2018 11:00:00 13,7 6,1 11 6 NW 1017,6 10
14.01.2018 10:00:00 12,7 6,3 11 6 NW 1016,9 10
14.01.2018 09:00:00 10,9 5,8 8 4 WNW 1016,6 10
14.01.2018 08:00:00 11,3 6,4 16 9 W 1015,6 10
14.01.2018 07:00:00 12,2 5,8 24 13 W 1015,4 10
14.01.2018 06:00:00 12,8 6,2 26 14 W 1015,2 10
14.01.2018 05:00:00 13,4 8,0 15 8 SSW 1015,3 10
14.01.2018 04:00:00 13,0 7,0 15 8 SW 1016,0 10
14.01.2018 03:00:00 12,6 6,6 16 9 SW 1016,4 10
14.01.2018 02:00:00 12,3 6,2 5 3 S 1016,8 10
14.01.2018 01:00:00 9,7 6,4 4 2 ESE 1017,5 10
14.01.2018 00:00:00 9,0 6,1 4 2 - 1018,4 10
13.01.2018 23:00:00 8,5 5,8 2 1 - 1018,7 10
13.01.2018 22:00:00 8,7 5,8 4 2 E 1018,7 10
13.01.2018 21:00:00 10,7 6,3 5 3 SE 1018,8 10
13.01.2018 20:00:00 11,4 6,5 8 4 SSE 1019,2 10
13.01.2018 19:00:00 11,8 6,2 4 2 ESE 1019,1 10
13.01.2018 18:00:00 12,6 6,0 2 1 SSE 1018,8 10
13.01.2018 17:00:00 13,3 6,0 8 4 S 1019,1 10
13.01.2018 16:00:00 13,4 6,6 9 5 S 1019,6 10
13.01.2018 15:00:00 13,7 6,3 11 6 S 1019,9 10
13.01.2018 14:00:00 13,9 5,7 9 5 S 1020,4 10
13.01.2018 13:00:00 14,8 5,0 9 5 S 1021,2 10
13.01.2018 12:00:00 14,2 4,3 4 2 - 1022,3 10
13.01.2018 11:00:00 11,8 5,6 0 0 N 1023,0 10
13.01.2018 10:00:00 6,8 3,9 2 1 NNE 1022,8 10
13.01.2018 09:00:00 2,0 1,0 5 3 NE 1022,6 10
13.01.2018 08:00:00 0,9 0,0 0 0 N 1022,6 10
13.01.2018 07:00:00 1,8 0,8 4 2 - 1022,2 10
13.01.2018 06:00:00 1,8 1,2 4 2 - 1022,3 10
13.01.2018 05:00:00 1,6 0,7 4 2 E 1022,5 10
13.01.2018 04:00:00 2,7 1,7 0 0 N 1023,0 10
13.01.2018 03:00:00 3,7 3,0 2 1 E 1023,5 10
13.01.2018 02:00:00 3,1 2,2 8 4 ENE 1023,6 10
13.01.2018 01:00:00 3,4 2,3 5 3 ENE 1023,7 10
13.01.2018 00:00:00 4,1 2,9 5 3 ENE 1024,1 10
12.01.2018 23:00:00 5,6 4,0 0 0 N 1024,1 10
12.01.2018 22:00:00 6,8 4,8 2 1 - 1023,9 10
12.01.2018 21:00:00 7,9 5,1 0 0 N 1023,6 10
12.01.2018 20:00:00 8,8 5,4 0 0 N 1023,2 10
12.01.2018 19:00:00 10,7 5,7 4 2 - 1022,8 10
12.01.2018 18:00:00 11,4 5,3 11 6 NNW 1022,4 10
12.01.2018 17:00:00 12,5 5,6 21 11 NW 1022,4 10
12.01.2018 16:00:00 13,3 5,2 26 14 NNW 1021,8 10
12.01.2018 15:00:00 14,3 4,6 16 9 WNW 1021,4 10
12.01.2018 14:00:00 14,4 6,8 18 10 WSW 1021,5 10

tt = Température de l'air
td = dewpoint
ff = Vitesse du vent
dd = Direction du vent
ppp = reduced air pressure
vv = visibility

stations d'obs. à proximité